Regional Weather Roundup
Issued by NWS Wakefield, VA

Home | Current Version | Previous Version | Graphics & Text | Print | Product List | Glossary On
Versions: 1 2 3 4 5 6 7 8 9 10 11 12 13 14 15 16 17 18 19 20 21 22 23 24 25 26 27
000
ASUS41 KAKQ 272315
RWRAKQ

REGIONAL WEATHER ROUNDUP
NATIONAL WEATHER SERVICE WAKEFIELD VA
700 PM EDT TUE SEP 27 2016

Note: "fair" indicates few or no clouds below 12,000 feet with no
significant weather and/or obstructions to visibility. * = Denotes
station may not report precipitation (e.g., rain,snow,etc.),
thunder or fog.

VAZ042-051-052>054-056-280000-
NORTHERN VIRGINIA

CITY           SKY/WX    TMP DP  RH WIND       PRES   REMARKS
WASH NATIONAL  PTCLDY    71  59  65 S9        29.91R
DULLES         PTCLDY    69  55  60 SE6       29.90R
FORT BELVOIR   CLEAR     65  60  84 SE1       29.90S
QUANTICO       MOCLDY    70  60  70 SE8       29.91S
FREDERICKSBRG* CLEAR     69  64  83 CALM      29.90R
STAFFORD*      CLEAR     67  60  77 E5        29.94F
WARRENTON      CLEAR     67  55  64 SE5       29.90R
CULPEPER*      CLEAR     69  61  76 CALM      29.91R
MANASSAS*      NOT AVBL
LEESBURG*      CLEAR     73  57  56 S6        29.91R
WINCHESTER     CLEAR     70  55  60 SE6       29.89R
FRONT ROYAL*   FAIR      68  59  73 CALM      29.88R
LURAY*         FAIR      70  61  73 CALM      29.89R
$$

VAZ048-049-060>072-079>083-280000-
CENTRAL AND SOUTH CENTRAL VIRGINIA

CITY           SKY/WX    TMP DP  RH WIND       PRES   REMARKS
RICHMOND       MOCLDY    70  67  90 E3        29.90R
CHESTERFIELD*  CLOUDY    72  55  56 SE5       29.91S
PETERSBURG*    CLOUDY   N/A N/A N/A CALM      29.91R HAZE
HANOVER        MOCLDY    68  65  90 CALM      29.92R
TAPPAHANNOCK*  CLOUDY    69  69 100 E3        29.92S
QUINTON*       MOCLDY    69  69  99 E5        29.90S
CHARLOTTSVILLE PTCLDY    73  64  73 SE7       29.89R
GORDONSVILLE*  NOT AVBL
ORANGE*          N/A     70  61  73 CALM      29.92R
LOUISA*        CLEAR     72  68  88 CALM      29.90R
BUMPASS*       FAIR      68  66  94 CALM      29.90S
FARMVILLE*     MOCLDY    74  69  84 CALM      29.88R
CREWE*         FAIR      71  71 100 CALM      29.89S
FORT PICKETT*  FAIR      70  66  88 E5        29.90S
CHASE CITY*    FAIR      72  71  95 S5        29.89S
CLARKSVILLE*   FAIR      72  72 100 CALM      29.89S
SOUTH HILL*    MOCLDY    71  70  98 CALM      29.96R
LAWRENCEVILLE* FAIR      70  69  97 CALM      29.90R
EMPORIA*         N/A     70  68  94 CALM      29.91S
$$

VAZ088>098-280000-
SOUTHEAST VIRGINIA

CITY           SKY/WX    TMP DP  RH WIND       PRES   REMARKS
NORFOLK        CLOUDY    72  69  90 S6        29.90S
VIRGINIA BEACH MOCLDY    70  68  93 S5        29.89F
NORFOLK NAVAL  CLOUDY    74  69  85 S3        29.91S
WEST POINT*    CLOUDY    71  70  94 CALM      29.92S
SALUDA*        CLOUDY    70  70 100 CALM      29.91S
NEWPORT NEWS   CLOUDY    73  70  90 N3        29.90S
LANGLEY AFB    CLOUDY    74  69  83 E3        29.90R
FORT EUSTIS    CLOUDY    74  70  89 N1        29.88S
WILLIAMSBURG*  PTCLDY    72  72 100 CALM      29.91S
HR EXEC AP*    CLOUDY    73  68  83 SE3       29.92S
FRANKLIN*      CLOUDY    73  70  89 CALM      29.91R
US460-WAKEFLD  MOCLDY    72  69  90 CALM      29.90S
$$

VAZ020-022-025-037-045-280000-
WEST CENTRAL AND SOUTHWEST VIRGINIA

CITY           SKY/WX    TMP DP  RH WIND       PRES   REMARKS
STAUNTON*      CLEAR     70  56  62 CALM      29.91R
WAYNESBORO*    FAIR      69  63  81 SE3       29.91R
HOT SPRINGS VA CLEAR     62  32  32 SW5       29.99R
LYNCHBURG      CLOUDY    72  66  81 SE7       29.90R
DANVILLE       CLOUDY    74  68  81 CALM      29.88R
SOUTH BOSTON*  FAIR      73  71  95 E3        29.88R
MARTINSVILLE   HVY RAIN  70  64  82 CALM      29.92R
ROANOKE        PTCLDY    74  65  73 SE7       29.90S
BLACKSBURG     CLEAR     69  53  57 NW3       29.96S
DUBLIN*        CLEAR     72  57  60 W3        29.95R
MARION*        CLEAR     69  60  74 W6        29.98S
HILLSVILLE*    CLEAR     69  60  72 W5        29.96R
RICHLANDS*     FAIR      69  53  57 SW5       29.97R
WISE*          CLEAR     68  30  24 CALM      29.98R
ABINGDON*      PTCLDY    73  60  65 W5        29.95R
$$

MDZ021>025-VAZ099-100-280000-
SOUTHERN MARYLAND AND THE DELMARVA PENINSULA

CITY           SKY/WX    TMP DP  RH WIND       PRES   REMARKS
PATUXENT RIVER CLOUDY    69  63  81 SE5       29.92R
BAY BRIDGE APT CLEAR     68  63  83 MISG      29.91S
LEONARDTOWN    CLOUDY    66  63  88 CALM      29.94S
DOVER          CLOUDY    67  65  94 SE5       29.92R
GEORGETOWN     CLOUDY    67  63  87 CALM      29.94R
EASTON         PTCLDY    68  59  73 SE3       29.95S
CAMBRIDGE      CLEAR     66  63  88 CALM      29.91F
SALISBURY      LGT RAIN  69  67  93 NE3       29.92S
OCEAN CITY     CLOUDY    71  66  84 CALM      29.92R
WALLOPS ISLAND CLOUDY    73  71  93 CALM      29.92S
ACCOMACK*      CLOUDY    72  69  89 CALM      29.91S
$$

NCZ012>017-030>032-280000-
NORTH CENTRAL AND EASTERN NORTH CAROLINA

CITY           SKY/WX    TMP DP  RH WIND       PRES   REMARKS
ROANOKE RAPIDS FAIR      70  70 100 CALM      29.90R
RALEIGH        MOCLDY    76  69  79 VRB5      29.89R
ELIZABETH CITY MOCLDY    73  70  90 NE7       29.90S
AHOSKIE*       PTCLDY    73  71  93 CALM      29.90R
EDENTON*       CLOUDY    77  70  79 SE5       29.89S
CURRITUCK*     MOCLDY    73  73 100 NE3       29.91S
KILL DEVIL HLS MOCLDY    75  70  84 SE9       29.89S
MANTEO         MOCLDY    74  68  81 SE9       29.90F
CAPE HATTERAS  CLOUDY    73  68  84 E5        29.89S
TARBORO*       FAIR      75  72  92 CALM      29.90R
GOLDSBORO      CLOUDY    75  74  97 SE2       29.88R
WASHINGTON     MOCLDY    73  72  96 CALM      29.89R
GREENVILLE     CLOUDY    73  73 100 CALM      29.91S
NEW BERN       CLOUDY    75  70  84 SE3       29.90R
WILMINGTON     CLEAR     75  69  81 NE3       29.90R
$$

VAZ048-280000-
ELSEWHERE

CITY           SKY/WX    TMP DP  RH WIND       PRES   REMARKS
HARRISBURG PA  CLEAR     67  58  72 CALM      29.88R
BALTIMORE      PTCLDY    69  59  70 SE5       29.91R
ANNAPOLIS      CLEAR     69  59  70 S7        29.91R
ANDREWS AFB    CLEAR     66  58  76 SE7       29.90R
PHILADELPHIA   PTCLDY    72  53  51 S6        29.91R
HENDERSON NC   CLEAR     71  67  87 CALM      29.89S
GREENSBORO     MOCLDY    76  70  82 S7        29.88R
ROCKY MOUNT    PTCLDY    72  72 100 CALM      29.89R
$$

VAZ100-280000-
MARINE

STATION/POSITION TIME  TEMP    WIND        PRES    WAVE   SWELL
                       AIR SEA DIR/SP/G            HT/PER HT/PER
                 (UTC) (F)     (DEG/KT/KT) (MB)    (FT/S) (FT/S)
BRANDYWINE LGT   2248   68     180/  4/  5   N/A
CAPE MAY NJ      2248   67 72  160/  2/  2 1013.1R
LEWES DE         2248   68 72   CALM  /  1 1013.3R
OCEAN-CITY-INLET 2248   70 73   60/  1/  2 1013.6R
WACHAPREAGUE VA  2248   73 74  190/  5/  7 1012.9R
THOMAS POINT MD  2300   70 74  160/  8/  9 1014.2R
GOOSES REEF MD   2250   71     170/  6/  8 1013.5R
COVE POINT MD    2248   69     170/  6/  7 1013.6R
SOLOMONS ISLAND  2248   70 75  110/  5/  6   N/A
BISHOPS HEAD MD  2248   70 71   90/  5/  6 1013.3S
PINEY POINT MD   2242          140/  8/  9   N/A
POTOMAC MD       2250   70     100/  4/  6 1012.1R
CAMBRIDGE MD     2248   69 74  120/  4/  7 1012.1S
LEWISETTA VA     2248   69 74  100/  4/  6 1012.6
RAPPAHANNOCK LGT 2242          160/  6/  6 1013.3S
STINGRAY PT      2250   73     140/  2/  4 1013.2R
YORK RVR RNG VA  2248   74     180/  4/  5 1012.1R
YORKTOWN VA      2248   74 76   60/  3/  4 1012.1F
JAMESTOWN VA     2250   74     170/  4/  6   N/A
DOMINION TERM VA 2248   75     150/  7/  8 1012.3S
KIPTOPEKE VA     2242      76  180/  7/  8   N/A
CHES BAY BRIDGE  2248   73 76  150/  7/  8 1012.2F
CAPE HENRY VA    2248   72     170/  5/  7   N/A
WILLOUBY STN VA  2248   74      90/  1/  3   N/A
CAPE HENRY BUOY  2242      75                N/A     3/13   2/13
1ST LANDING BUOY 2250   73     180/  8/ 10 1012.1F
CAPE CHARLES BUO 2226      76                N/A     3/ 5   2/13
OFFSHORE WE BUOY 2221      75                N/A     3/ 5   2/12
64NM E OF VA BCH 2250   74 74  150/ 12/ 14 1012.3F   3/ 4   2/11
DUCK PIER NC     2248   75 77  140/ 16/ 17 1011.6F
44056 DUCK FRF   2241      76                N/A     3/12   2/12
OREGON INLET NC  2248   74 77  100/  7/ 11 1012.0F
HATTERAS NC      2248   74 77   60/  6/  8 1011.7F
DIAMOND SHLS NC  2250   77 84   80/ 14/ 17 1011.1F   5/ 7   3/11
CAPE LOOKOUT NC  2300   77      60/ 10/ 11 1011.5R
$$




USA.gov is the U.S. government's official web portal to all federal, state and local government web resources and services.